Knoxville, IA

11:42 AM CST on December 09, 2016 (GMT -0600)
Knoxville Municipal

Weather History for KOXV - November, 2012

Change the Weather History Date:

Sunday, November 11, 2012

  Actual Average Record
Temperature  
Mean Temperature 45 °F -  
Max Temperature 66 °F 48 °F 74 °F (1964)
Min Temperature 24 °F 30 °F 4 °F (1986)
Degree Days  
Heating Degree Days 20    
Moisture  
Dew Point 34 °F    
Average Humidity 81    
Maximum Humidity 93    
Minimum Humidity 52    
Precipitation  
Precipitation 0.93 in - - ()
Sea Level Pressure  
Sea Level Pressure 29.86 in    
Wind  
Wind Speed 15 mph (West)    
Max Wind Speed 22 mph    
Max Gust Speed 31 mph    
Visibility 8 miles    
Events Rain , Snow    
Averages and records for this station are not official NWS values.
T = Trace of Precipitation, MM = Missing Value Source: NWS Daily Summary

Daily Weather History Graph

Daily Weather History Graph

Search for Another Location

Airport or City:

Trip Planner

Search our weather history database for the weather conditions in past years. The results will help you decide how hot, cold, wet, or windy it might be!

Date:

Astronomy

Nov. 11, 2012 Rise Set
Actual Time 6:56 AM CST 4:56 PM CST
Civil Twilight 6:27 AM CST 5:25 PM CST
Nautical Twilight 5:53 AM CST 5:58 PM CST
Astronomical Twilight 5:21 AM CST 6:31 PM CST
Moon 4:09 AM CST (11/11) 3:21 PM CST (11/11)
Length of Visible Light 10h 58m
Length of Day
9h 59m
Waning Crescent, 7% of the Moon is Illuminated
Nov 11
Waning Crescent
Nov 13
New
Nov 20
First Quarter
Nov 28
Full
Dec 6
Last Quarter

Hourly Weather History & Observations

Time (CST) Temp. Windchill Dew Point Humidity Pressure Visibility Wind Dir Wind Speed Gust Speed Precip Events Conditions
12:15 AM 66.2 °F - 48.2 °F 52% 29.70 in 10.0 mi South 20.7 mph 29.9 mph N/A   Clear
12:35 AM 66.2 °F - 48.2 °F 52% 29.70 in 10.0 mi South 16.1 mph 23.0 mph N/A   Scattered Clouds
12:55 AM 66.2 °F - 50.0 °F 56% 29.70 in 10.0 mi South 18.4 mph 31.1 mph N/A   Overcast
1:15 AM 66.2 °F - 50.0 °F 56% 29.72 in 10.0 mi SSW 16.1 mph 28.8 mph N/A   Overcast
1:35 AM 64.4 °F - 51.8 °F 64% 29.72 in 10.0 mi South 15.0 mph 23.0 mph N/A   Overcast
1:55 AM 64.4 °F - 51.8 °F 64% 29.71 in 10.0 mi South 15.0 mph - N/A   Overcast
2:15 AM 64.4 °F - 51.8 °F 64% 29.74 in 10.0 mi South 17.3 mph - N/A Rain Rain
2:35 AM 60.8 °F - 53.6 °F 77% 29.73 in 10.0 mi South 12.7 mph - N/A   Light Drizzle
2:55 AM 60.8 °F - 53.6 °F 77% 29.75 in 10.0 mi South 11.5 mph - N/A Rain Rain
3:15 AM 59.0 °F - 53.6 °F 82% 29.73 in 10.0 mi South 9.2 mph - N/A   Light Drizzle
3:35 AM 59.0 °F - 53.6 °F 82% 29.69 in 10.0 mi SE 9.2 mph - N/A   Mostly Cloudy
3:55 AM 59.0 °F - 53.6 °F 82% 29.69 in 10.0 mi SSE 10.4 mph - N/A   Overcast
4:15 AM 59.0 °F - 53.6 °F 82% 29.68 in 10.0 mi SSE 10.4 mph - N/A   Overcast
4:35 AM 59.0 °F - 53.6 °F 82% 29.68 in 10.0 mi SSE 10.4 mph - N/A   Overcast
4:55 AM 59.0 °F - 53.6 °F 82% 29.70 in 10.0 mi South 8.1 mph - N/A   Overcast
5:35 AM 57.2 °F - 53.6 °F 88% 29.72 in 10.0 mi SSW 3.5 mph - 0.19 in Rain Rain
5:55 AM 57.2 °F - 53.6 °F 88% 29.70 in 10.0 mi SSE 8.1 mph - 0.21 in Rain Light Rain
6:15 AM 57.2 °F - 53.6 °F 88% 29.66 in 7.0 mi SSE 6.9 mph - 0.06 in Rain Rain
6:35 AM 57.2 °F - 53.6 °F 88% 29.67 in 10.0 mi SSE 9.2 mph - 0.08 in Rain Light Rain
6:55 AM 57.2 °F - 53.6 °F 88% 29.67 in 7.0 mi South 6.9 mph - 0.10 in Rain Rain
7:35 AM 46.4 °F 39.0 °F 42.8 °F 87% 29.71 in 2.5 mi NW 19.6 mph - 0.10 in Rain Heavy Rain
7:55 AM 42.8 °F 33.8 °F 39.2 °F 87% 29.74 in 3.0 mi WNW 21.9 mph 27.6 mph 0.14 in Rain Rain
8:15 AM 41.0 °F 32.5 °F 37.4 °F 87% 29.76 in 4.0 mi WNW 17.3 mph 27.6 mph 0.06 in   Overcast
8:35 AM 39.2 °F 30.2 °F 35.6 °F 87% 29.76 in 5.0 mi NW 17.3 mph 21.9 mph 0.08 in   Overcast
8:55 AM 39.2 °F 31.2 °F 35.6 °F 87% 29.76 in 2.5 mi NW 13.8 mph 21.9 mph 0.11 in   Overcast
9:35 AM 37.4 °F 27.5 °F 33.8 °F 87% 29.76 in 4.0 mi NW 18.4 mph 25.3 mph 0.08 in   Overcast
9:55 AM 37.4 °F 28.2 °F 33.8 °F 87% 29.78 in 3.0 mi NW 16.1 mph 19.6 mph 0.10 in   Overcast
10:15 AM 37.4 °F 28.5 °F 33.8 °F 87% 29.80 in 5.0 mi WNW 15.0 mph 18.4 mph 0.04 in   Overcast
10:35 AM 35.6 °F 25.9 °F 32.0 °F 87% 29.80 in 4.0 mi WNW 16.1 mph 23.0 mph 0.05 in   Overcast
10:55 AM 35.6 °F 24.8 °F 32.0 °F 87% 29.83 in 5.0 mi WNW 19.6 mph 25.3 mph 0.06 in   Overcast
11:15 AM 35.6 °F 26.6 °F 30.2 °F 81% 29.82 in 4.0 mi NW 13.8 mph 21.9 mph 0.02 in   Overcast
11:35 AM 33.8 °F 24.3 °F 30.2 °F 87% 29.81 in 2.5 mi WNW 13.8 mph - 0.05 in   Overcast
12:15 PM 33.8 °F 23.9 °F 30.2 °F 87% 29.82 in 2.0 mi WNW 15.0 mph 20.7 mph 0.06 in   Overcast
12:35 PM 33.8 °F 23.5 °F 28.4 °F 81% 29.80 in 1.5 mi NW 16.1 mph - 0.12 in Snow Light Snow
12:55 PM 32.0 °F 20.1 °F 28.4 °F 87% 29.85 in 2.0 mi West 19.6 mph 23.0 mph 0.16 in Snow Light Snow
1:15 PM 32.0 °F 21.6 °F 28.4 °F 87% 29.84 in 10.0 mi WNW 15.0 mph 23.0 mph N/A   Overcast
1:35 PM 32.0 °F 20.8 °F 28.4 °F 87% 29.84 in 7.0 mi WNW 17.3 mph 23.0 mph N/A   Overcast
1:55 PM 30.2 °F 17.8 °F 26.6 °F 86% 29.85 in 10.0 mi WNW 19.6 mph 25.3 mph N/A   Overcast
2:15 PM 30.2 °F 20.2 °F 26.6 °F 86% 29.87 in 10.0 mi WNW 12.7 mph 23.0 mph N/A   Overcast
2:35 PM 32.0 °F 21.6 °F 28.4 °F 87% 29.85 in 10.0 mi WNW 15.0 mph - N/A   Overcast
2:55 PM 30.2 °F 19.3 °F 28.4 °F 93% 29.88 in 10.0 mi NW 15.0 mph 23.0 mph N/A   Overcast
3:15 PM 30.2 °F 20.2 °F 26.6 °F 86% 29.88 in 10.0 mi WNW 12.7 mph - N/A   Overcast
3:35 PM 30.2 °F 18.9 °F 26.6 °F 86% 29.90 in 10.0 mi WNW 16.1 mph 24.2 mph N/A   Overcast
3:55 PM 30.2 °F 19.3 °F 26.6 °F 86% 29.92 in 10.0 mi WNW 15.0 mph - N/A   Overcast
4:15 PM 30.2 °F 19.8 °F 26.6 °F 86% 29.93 in 10.0 mi WNW 13.8 mph - N/A   Overcast
4:35 PM 30.2 °F 20.2 °F 26.6 °F 86% 29.95 in 10.0 mi West 12.7 mph - N/A   Overcast
4:55 PM 30.2 °F 19.3 °F 26.6 °F 86% 29.95 in 10.0 mi WNW 15.0 mph 20.7 mph N/A   Overcast
5:15 PM 30.2 °F 19.3 °F 26.6 °F 86% 29.96 in 10.0 mi WNW 15.0 mph - N/A   Overcast
5:35 PM 30.2 °F 19.3 °F 26.6 °F 86% 29.98 in 10.0 mi WNW 15.0 mph 19.6 mph N/A   Overcast
5:55 PM 30.2 °F 18.9 °F 24.8 °F 80% 29.97 in 10.0 mi WNW 16.1 mph 23.0 mph N/A   Overcast
6:15 PM 30.2 °F 17.4 °F 24.8 °F 80% 29.97 in 10.0 mi WNW 20.7 mph 24.2 mph N/A   Overcast
6:35 PM 28.4 °F 17.5 °F 24.8 °F 86% 30.02 in 10.0 mi West 13.8 mph - N/A   Mostly Cloudy
6:55 PM 28.4 °F 18.0 °F 23.0 °F 80% 30.03 in 10.0 mi WNW 12.7 mph - N/A   Scattered Clouds
7:15 PM 28.4 °F 18.0 °F 21.2 °F 74% 30.04 in 10.0 mi WNW 12.7 mph - N/A   Clear
7:35 PM 26.6 °F 17.5 °F 21.2 °F 80% 30.05 in 10.0 mi WNW 9.2 mph - N/A   Clear
7:55 PM 26.6 °F 15.7 °F 21.2 °F 80% 30.06 in 10.0 mi WNW 12.7 mph - N/A   Clear
8:15 PM 26.6 °F 15.7 °F 21.2 °F 80% 30.05 in 10.0 mi WNW 12.7 mph - N/A   Clear
8:35 PM 26.6 °F 15.2 °F 21.2 °F 80% 30.06 in 10.0 mi West 13.8 mph 18.4 mph N/A   Clear
8:55 PM 26.6 °F 14.7 °F 21.2 °F 80% 30.06 in 10.0 mi WNW 15.0 mph - N/A   Clear
9:15 PM 26.6 °F 15.7 °F 19.4 °F 74% 30.07 in 10.0 mi West 12.7 mph - N/A   Clear
9:35 PM 26.6 °F 16.2 °F 19.4 °F 74% 30.08 in 10.0 mi West 11.5 mph - N/A   Clear
9:55 PM 26.6 °F 15.2 °F 19.4 °F 74% 30.09 in 10.0 mi WNW 13.8 mph - N/A   Clear
10:15 PM 24.8 °F 12.9 °F 19.4 °F 80% 30.10 in 10.0 mi WNW 13.8 mph - N/A   Clear
10:35 PM 24.8 °F 13.4 °F 19.4 °F 80% 30.10 in 10.0 mi WNW 12.7 mph 19.6 mph N/A   Clear
10:55 PM 24.8 °F 14.0 °F 17.6 °F 74% 30.10 in 10.0 mi WNW 11.5 mph - N/A   Clear
11:15 PM 24.8 °F 12.9 °F 17.6 °F 74% 30.11 in 10.0 mi WNW 13.8 mph 20.7 mph N/A   Clear
11:35 PM 24.8 °F 14.0 °F 17.6 °F 74% 30.12 in 10.0 mi West 11.5 mph 16.1 mph N/A   Clear
11:55 PM 24.8 °F 14.0 °F 17.6 °F 74% 30.12 in 10.0 mi West 11.5 mph - N/A   Clear